#timestamp,LO_Frequency,Hit,StdDev 
1642899615.7,286046998.5,N
1642899635.5,286046999.9,N
1642899655.4,286047000.4,N
1642899675.2,286047000.1,N
1642899695.0,286047000.2,N
1642899695.9,286047000.2,N
1642899715.8,286047002.7,N
1642899735.6,286047000.2,N
1642899755.5,286047000.8,N
1642899775.3,286047001.1,N
1642899795.1,286047000.4,N
1642899815.9,286047000.6,N
1642899835.7,286046999.8,N
1642899855.5,286047002.7,N
1642899875.4,286047002.8,N
1642899895.2,286046999.8,N
1642899915.1,286047000.0,N
1642899916.0,286047000.0,N
1642899935.8,286047002.2,N
1642899955.6,286047002.1,N
1642899975.5,286047002.0,N
1642899995.3,286047002.4,N
1642900015.1,286047002.0,N
1642900035.9,286047001.3,N
1642900055.7,286047002.6,N
1642900075.6,286047002.8,N
1642900095.4,286047002.4,N
1642900115.2,286047002.4,N
1642900135.1,286047000.4,N
1642900136.0,286047000.4,N
1642900155.8,286047000.9,N
1642900175.6,286047002.7,N
1642900195.5,286047000.1,N
1642900215.3,286046999.7,N
1642900235.2,286047000.0,N
1642900255.9,286047000.7,N
1642900275.7,286046998.7,N
1642900295.6,286046998.6,N
1642900315.4,286046996.5,N
1642900335.2,286046999.1,N
1642900355.1,286046996.9,N
1642900356.0,286046996.9,N
1642900375.8,286046998.9,N
1642900395.7,286046999.5,N
1642900415.5,286046998.5,N
1642900435.3,286046998.5,N
1642900455.2,286046999.1,N
1642900475.0,286046999.0,N
1642900475.9,286046999.0,N
1642900495.8,286046998.3,N
1642900515.6,286047000.7,N
1642900535.4,286046998.4,N
1642900555.3,286046999.2,N
1642900575.1,286046997.8,N
1642900595.9,286046996.8,N
1642900615.7,286046996.8,N
1642900635.5,286046999.5,N
1642900655.4,286046998.6,N
1642900675.2,286047001.2,N
1642900695.1,286047000.8,N
1642900696.0,286047000.8,N
1642900715.8,286047000.9,N
1642900735.6,286047000.6,N
1642900755.5,286047000.3,N
1642900775.3,286046998.1,N
1642900795.1,286046999.0,N
1642900815.9,286046999.0,N
1642900835.7,286047001.1,N
1642900855.6,286046998.9,N
1642900875.4,286046999.9,N
1642900895.2,286047000.1,N
1642900915.1,286046998.1,N
1642900916.0,286046998.1,N
1642900935.8,286047000.8,N
1642900955.6,286047000.1,N
1642900975.5,286047000.7,N
1642900995.3,286046998.5,N
1642901015.2,286047002.8,N
1642901035.9,286047000.7,N
1642901055.7,286047000.7,N
1642901075.6,286047000.5,N
1642901095.4,286046999.8,N
1642901115.2,286047000.0,N
1642901135.1,286047000.7,N
1642901136.0,286047000.7,N
1642901155.8,286047001.2,N
1642901175.7,286046998.9,N
1642901195.5,286047000.8,N
1642901215.3,286046998.5,N
1642901235.2,286046998.5,N
1642901255.0,286047000.7,N
1642901255.9,286047000.7,N
1642901275.7,286047000.9,N
1642901295.6,286046998.2,N
1642901315.4,286047000.4,N
1642901335.3,286047002.4,N
1642901355.1,286047000.0,N
1642901356.0,286047000.0,N
1642901375.8,286047001.4,N
1642901395.7,286047001.6,N
1642901415.5,286047003.2,N
1642901435.3,286047001.8,N
1642901455.2,286047001.8,N
1642901475.0,286047005.1,Y
1642901475.9,286047005.1,P
1642901495.8,286047001.4,N
1642901515.6,286046999.9,N
1642901535.4,286046998.4,N
1642901555.3,286046998.8,N
1642901575.1,286046998.8,N
1642901595.9,286047000.5,N
1642901615.7,286047001.2,N
1642901635.5,286047000.3,N
1642901655.4,286047000.5,N
1642901675.2,286047002.8,N
1642901695.1,286047002.0,N
1642901696.0,286047002.0,N
1642901715.8,286047000.1,N
1642901735.6,286047002.4,N
1642901755.5,286047000.1,N
1642901775.3,286047002.1,N
1642901795.2,286047002.7,N
1642901815.9,286047001.7,N
1642901835.7,286047001.8,N
1642901855.6,286047001.7,N
1642901875.4,286047001.3,N
1642901895.2,286047001.6,N
1642901915.1,286047002.1,N
1642901916.0,286047002.1,N
1642901935.8,286047002.5,N
1642901955.7,286047001.6,N
1642901975.5,286047002.2,N
1642901995.3,286047001.9,N
1642902015.2,286047002.1,N
1642902035.0,286047001.8,N
1642902035.9,286047001.8,N
1642902055.7,286047001.8,N
1642902075.6,286047003.4,N
1642902095.4,286047004.0,Y
1642902115.3,286047001.9,P
1642902135.1,286047002.1,P
1642902136.0,286047002.1,P
1642902155.8,286047000.2,N
1642902175.7,286047000.1,N
1642902195.5,286047000.4,N
1642902215.3,286047000.6,N
1642902235.2,286047001.2,N
1642902255.0,286047000.5,N
1642902255.9,286047000.5,N
1642902275.8,286047000.8,N
1642902295.6,286046998.3,N
1642902315.4,286047000.5,N
1642902335.3,286047001.0,N
1642902355.1,286047000.3,N
1642902375.9,286047000.8,N
1642902395.7,286046998.1,N
1642902415.5,286047000.7,N
1642902435.4,286046998.5,N
1642902455.2,286046998.6,N
1642902475.0,286046998.8,N
1642902475.9,286046998.8,N
1642902495.8,286047000.4,N
1642902515.6,286047000.0,N
1642902535.5,286047002.4,N
1642902555.3,286046999.9,N
1642902575.1,286047001.0,N
1642902595.9,286047000.7,N
1642902615.7,286047000.8,N
1642902635.6,286046999.0,N
1642902655.4,286046998.2,N
1642902675.2,286047000.7,N
1642902695.1,286046998.9,N
1642902696.0,286046998.9,N
1642902715.8,286046999.2,N
1642902735.7,286046998.3,N
1642902755.5,286047000.8,N
1642902775.3,286046998.6,N
1642902795.2,286047000.8,N
1642902815.0,286046998.2,N
1642902815.9,286046998.2,N
1642902835.7,286047001.0,N
1642902855.6,286047001.2,N
1642902875.4,286046998.1,N
1642902895.3,286047000.8,N
1642902915.1,286047000.2,N
1642902935.8,286047002.6,N
1642902955.7,286046999.7,N
1642902975.5,286047000.3,N
1642902995.4,286047000.3,N
1642903015.2,286046998.2,N
1642903035.0,286046998.8,N
1642903035.9,286046998.8,N
1642903055.8,286046996.5,N
1642903075.6,286046996.7,N
1642903095.4,286046997.1,N
1642903115.3,286046996.5,N
1642903135.1,286046996.8,N
1642903155.9,286046996.7,N
1642903175.7,286046999.1,N
1642903195.5,286047000.8,N
